Flag for U.S.A. Weather past 2 weeks in Everett, Washington, U.S.A.

Now
58 °F

Mostly cloudy.


Feels Like: 54 °F
Forecast: 53 / 60 °F
Wind: 18 mph from South

Location: Snohomish County Airport

Current Time: Oct 21, 2014 at 1:10:05 PM

Latest Report: Oct 21, 2014 at 11:53 AM


Visibility: 10 mi

Pressure: 29.91 "Hg

Humidity: 75%

Dew point: 50 °F

Location of EverettLocation

Historic Weather in Everett — Graph

°F

Everett temperature yesterday

Maximum temperature yesterday: 62 °F (at 12:53 PM)
Minimum temperature yesterday: 54 °F (at 7:53 PM)
Average temperature yesterday: 58 °F

Past Weeks' High & Low Weather Summary

 TemperatureHumidityPressure
High73 °F (Oct 6, 2:53 PM)100% (Oct 7, 3:53 AM)30.26 "Hg (Oct 7, 3:53 AM)
Low50 °F (Oct 12, 7:53 AM)35% (Oct 13, 1:53 PM)29.52 "Hg (Oct 15, 4:53 AM)
Average58 °F82%29.91 "Hg
* Reported Oct 6 11:53 AM — Oct 21 11:53 AM, Everett, Weather by CustomWeather, © 2014

Note: Actual official high and low records may vary slightly from our data, if they occured in-between our weather recording intervals... More about our weather records

Advertising

Everett weather history for previous 24 hours

 ConditionsComfort  
Time TempWeatherWind HumidityBarometerVisibility
11:53 AM
Oct 21
58 °FMostly cloudy.18 mph75%29.91 "Hg10 mi
10:53 AM57 °FLight rain. Mostly cloudy.18 mph81%29.90 "Hg10 mi
9:59 AM55 °FPartly sunny.14 mph87%29.89 "Hg10 mi
8:53 AM54 °FOvercast.10 mph86%29.88 "Hg10 mi
8:00 AM53 °FLight rain. Mostly cloudy.14 mph89%29.85 "Hg10 mi
6:53 AM53 °FOvercast.12 mph89%29.84 "Hg10 mi
5:53 AM53 °FOvercast.14 mph89%29.84 "Hg10 mi
4:53 AM53 °FOvercast.15 mph89%29.82 "Hg10 mi
3:53 AM54 °FMostly cloudy.17 mph86%29.82 "Hg10 mi
2:53 AM54 °FMostly cloudy.12 mph86%29.82 "Hg10 mi
1:53 AM53 °FPassing clouds.10 mph89%29.82 "Hg10 mi
12:53 AM53 °FPartly cloudy.12 mph93%29.80 "Hg10 mi
11:53 PM
Oct 20
54 °FPartly cloudy.10 mph93%29.80 "Hg10 mi
10:53 PM54 °FLight rain. Mostly cloudy.12 mph90%29.79 "Hg10 mi
9:53 PM55 °FPartly cloudy.9 mph90%29.78 "Hg10 mi
8:53 PM55 °FPartly cloudy.13 mph87%29.77 "Hg10 mi
7:53 PM54 °FLight rain. Mostly cloudy.3 mph86%29.76 "Hg10 mi
6:53 PM58 °FBroken clouds.10 mph78%29.77 "Hg10 mi
5:53 PM60 °FScattered clouds.13 mph72%29.75 "Hg10 mi
4:53 PM60 °FScattered clouds.10 mph75%29.75 "Hg10 mi
3:53 PM62 °FSunny.15 mph67%29.75 "Hg10 mi
2:53 PM60 °FPassing clouds.14 mph75%29.75 "Hg10 mi
1:53 PM61 °FScattered clouds.15 mph70%29.75 "Hg10 mi
Weather by CustomWeather, © 2014

See weather overviewHow to use our weather pages